Regional Weather Roundup
Issued by NWS Newport/Morehead, NC

Current Version | Previous Version | Text Only | Print | Product List | Glossary Off
Versions: 1 2 3 4 5 6 7 8 9 10 11 12 13 14 15 16 17 18 19 20 21 22 23 24 25 26 27 28 29 30 31 32 33 34 35 36 37 38 39 40 41 42 43 44 45 46 47 48 49 50
112 ASUS42 KMHX 150413 RWRMHX WEATHER ROUNDUP FOR EASTERN NORTH CAROLINA NATIONAL WEATHER SERVICE NEWPORT/MOREHEAD CITY NC 1100 PM EST THU DEC 14 2017 NOTE: "FAIR" INDICATES FEW OR NO CLOUDS BELOW 12,000 FEET WITH NO SIGNIFICANT WEATHER AND/OR OBSTRUCTIONS TO VISIBILITY NCZ015>017-031-032-045>047-102-103-150500- NORTH COAST CITY SKY/WX TMP DP RH WIND PRES REMARKS EDENTON CLEAR 40 32 73 NE7 30.07R ELIZABETH CITY CLEAR 40 34 79 N7 30.07R KITTY HAWK CLEAR 46 35 65 CALM 30.04R MANTEO CLEAR 44 36 73 NE8 30.06R $$ NCZ045>047-081-094-103-104-150500- CENTRAL COAST CITY SKY/WX TMP DP RH WIND PRES REMARKS FRISCO CLEAR 46 41 82 NE5 30.02R $$ NCZ095-097-098-100-101-150500- SOUTHERN COAST CITY SKY/WX TMP DP RH WIND PRES REMARKS BEAUFORT CLEAR 42 35 76 NE7 30.01S CEDAR ISLAND NOT AVBL JACKSONVILLE CLOUDY 35 34 96 CALM 29.99F PINEY ISLAND N/A N/A N/A N/A NE9 30.01F WILMINGTON CLOUDY 39 36 89 CALM 30.00R $$ NCZ011>013-027>030-043-044-078>080-089-090>093-098-150500- COASTAL PLAIN CITY SKY/WX TMP DP RH WIND PRES REMARKS AHOSKIE CLEAR 37 28 71 NE3 30.06F CLINTON CLEAR 34 32 93 CALM 30.01R ELIZABETHTOWN NOT AVBL GOLDSBORO CLEAR 40 31 71 E10 30.00R GREENVILLE CLEAR 37 32 81 CALM 30.06R HAVELOCK CLEAR 41 32 70 NE9 30.02S KENANSVILLE CLEAR 32 30 93 CALM 30.00S KINSTON NOT AVBL NEW BERN CLEAR 38 35 89 NE6 30.03S RICHLANDS CLOUDY 31 30 96 CALM 30.00S ROCKY MOUNT CLEAR 39 31 72 NE7 30.04R WASHINGTON CLEAR 37 32 81 NE8 30.05S WHITEVILLE CLOUDY 38 35 89 CALM 29.99R $$ AMZ130-135-150-152-154-156-158-170-250-252-270-ANZ085-086-088-633-658-670-150500- MARINE OBSERVATIONS STATION/POSITION TIME TEMP WIND PRES WAVE SWELL AIR SEA DIR/SP/G HT/PER HT/PER (UTC) (F) (DEG/KT/KT) (MB) (FT/S) (FT/S) CHESAPEAKE LIGHT NOT AVBL 64 E VA BEACH 0350 47 60 40/ 12/ 16 1018.4 6/ 7 5/ 7 DUCK 0342 47 53 50/ 14/ 16 1017.6 2 E DUCK 0400 55 N/A 4/ 5 OREGON INLET 0342 48 42 40/ 8/ 12 1017.2 13E OREGON INLT 0348 62 N/A 4/ 8 3/ 8 HATTERAS CG 0342 48 52 20/ 9/ 11 1016.2 DIAMOND BUOY 0400 57 74 350/ 8/ 12 1016.4 CAPE LOOKOUT 0400 20/ 10/ 12 1016.1 BEAUFORT LAB 0342 44 50 30/ 7/ 10 1016.0 30 SE NEW RVR IN 0308 58 64 290/ 6/ 8 1015.7 30 SE NEW RVR IN 0400 64 N/A 4/ 7 27 SE WRIGHTSVLE 0308 58 65 300/ 8/ 12 1015.7 5 SE WRIGHTSVLE 0308 54 56 290/ 6/ 10 1015.2 225 S CAPE HAT 0350 71 74 260/ 19/ 23 1016.2 8/ 8 3/11 41 SE CHARLESTON 0400 64 71 250/ 17/ 21 1016.2 $$

USA.gov is the U.S. government's official web portal to all federal, state and local government web resources and services.